Location: Champs
(48.8539°N, 2.6040°E)
Time: 04:04:56
(UTC+00:00)

Cosmos 2366 rocket - Pass Details

Date: 26 October 2021
Orbit: 956 x 996 km, 82.9° (Epoch: 04 December)

Event Time Altitude Azimuth Distance (km) Brightness Sun altitude
Rises 03:46:56 0° 348° (NNW) 3,720 7.1 -26.8°
Reaches altitude 10° 03:49:28 10° 346° (NNW) 2,770 6.3 -26.4°
Maximum altitude 03:55:46 67° 266° (W) 1,077 3.9 -25.4°
Drops below altitude 10° 04:02:02 10° 185° (S) 2,756 6.2 -24.4°
Sets 04:04:34 0° 183° (S) 3,700 6.9 -24.0°
